F5INV-13 Weather Reports


time (UTC)temp
C
wind
direction
speed
KPH
gust
KPH
rain 1hr
cm
rain 24hr
cm
rain mn
cm
humidity
%
barometer
mb
20260504034504 14 0 0.0 0.0 0.00 0.23 0.00 94 1007.4
20260504034004 14 0 0.0 0.0 0.00 0.23 0.00 94 1006.4
20260504033504 14 0 0.0 0.0 0.00 0.23 0.00 94 1006.4
20260504033005 14 0 0.0 0.0 0.00 0.23 0.00 94 1006.4
20260504032504 14 0 0.0 0.0 0.00 0.23 0.00 94 1006.4
20260504032005 14 0 0.0 0.0 0.00 0.23 0.00 94 1006.4
20260504031504 14 0 0.0 0.0 0.00 0.23 0.00 94 1006.4
20260504031005 14 122 0.0 6.4 0.00 0.23 0.00 94 1005.3
20260504030504 14 122 0.0 6.4 0.00 0.23 0.00 94 1005.3
20260504030005 14 139 0.0 8.0 0.00 0.23 0.00 94 1005.3
20260504025504 14 139 0.0 8.0 0.00 0.23 0.00 94 1006.4
20260504025005 14 90 0.0 4.8 0.00 0.23 0.00 94 1006.4
20260504024504 14 125 1.6 8.0 0.00 0.23 0.00 94 1006.4
20260504024005 14 133 3.2 8.0 0.00 0.23 0.00 94 1005.3
20260504023505 14 128 3.2 9.7 0.00 0.23 0.00 94 1005.3
20260504023005 14 114 3.2 9.7 0.00 0.23 0.00 94 1005.3
20260504022504 14 99 1.6 9.7 0.00 0.23 0.00 94 1006.4
20260504022005 14 85 1.6 8.0 0.00 0.23 0.00 94 1006.4
20260504021504 14 93 1.6 8.0 0.00 0.23 0.00 94 1006.4
20260504021005 14 101 4.8 14.5 0.00 0.23 0.00 94 1006.4
20260504020504 14 97 6.4 14.5 0.00 0.23 0.00 94 1006.4
20260504020005 14 92 6.4 12.9 0.00 0.23 0.00 94 1006.4
20260504015505 14 92 4.8 12.9 0.00 0.23 0.00 94 1006.4
20260504015004 14 91 3.2 12.9 0.00 0.23 0.00 94 1006.4
20260504014505 14 107 1.6 9.7 0.00 0.23 0.00 94 1006.4
20260504014004 14 96 3.2 11.3 0.00 0.23 0.00 94 1006.4
20260504013505 14 89 1.6 11.3 0.00 0.23 0.00 94 1006.4
20260504013004 14 84 1.6 11.3 0.00 0.23 0.00 94 1006.4
20260504012505 14 81 4.8 12.9 0.00 0.23 0.00 94 1006.4
20260504012004 14 90 6.4 14.5 0.00 0.23 0.00 94 1006.4
20260504011505 14 115 4.8 14.5 0.00 0.23 0.00 94 1006.4
20260504011005 14 106 3.2 12.9 0.00 0.23 0.00 94 1006.4
20260504010504 14 108 4.8 14.5 0.00 0.23 0.00 94 1006.4
20260504010005 14 120 4.8 14.5 0.00 0.23 0.00 94 1006.4
20260504005504 14 127 4.8 16.1 0.00 0.23 0.00 94 1006.4
20260504005005 14 125 8.0 17.7 0.00 0.23 0.00 94 1006.4
20260504004504 14 126 8.0 17.7 0.00 0.23 0.00 94 1006.4
20260504004004 14 123 6.4 19.3 0.00 0.23 0.00 94 1006.4
20260504003505 14 110 8.0 19.3 0.00 0.23 0.00 94 1006.4
20260504003004 14 115 6.4 14.5 0.00 0.23 0.00 94 1006.4
20260504002505 14 109 6.4 14.5 0.00 0.23 0.00 94 1006.4
20260504002004 14 115 8.0 14.5 0.00 0.23 0.00 94 1006.4
20260504001505 14 122 8.0 16.1 0.00 0.23 0.00 94 1006.4
20260504001005 14 109 8.0 16.1 0.00 0.23 0.00 94 1005.3
20260504000505 14 99 6.4 12.9 0.00 0.23 0.00 94 1005.3
20260504000004 14 107 6.4 12.9 0.00 0.23 0.00 94 1005.3
20260503235504 14 113 6.4 17.7 0.00 0.23 0.00 94 1006.4
20260503235005 14 115 8.0 17.7 0.00 0.23 0.00 94 1006.4
20260503234504 14 110 6.4 12.9 0.00 0.23 0.00 94 1006.4
20260503234005 14 105 6.4 12.9 0.00 0.23 0.00 94 1006.4
20260503233504 14 109 6.4 11.3 0.00 0.23 0.00 94 1006.4
20260503233004 14 114 6.4 11.3 0.00 0.23 0.00 94 1006.4
20260503232505 14 117 6.4 14.5 0.00 0.23 0.00 94 1006.4
20260503232004 14 119 6.4 14.5 0.00 0.23 0.00 94 1006.4
20260503231504 14 118 4.8 12.9 0.00 0.23 0.00 94 1006.4
20260503231005 14 110 6.4 14.5 0.00 0.23 0.00 94 1006.4
20260503230504 14 108 8.0 17.7 0.00 0.23 0.00 94 1006.4
20260503230005 14 103 9.7 17.7 0.00 0.23 0.00 94 1006.4
20260503225504 14 102 8.0 19.3 0.00 0.23 0.00 94 1006.4
20260503225005 14 95 6.4 19.3 0.00 0.23 0.00 94 1006.4
20260503224504 14 97 6.4 14.5 0.00 0.23 0.00 94 1006.4
20260503224005 14 104 4.8 14.5 0.00 0.23 0.00 94 1007.4
20260503223504 14 100 3.2 14.5 0.00 0.23 0.00 94 1007.4
20260503223004 14 82 3.2 12.9 0.00 0.23 0.00 94 1007.4
20260503222505 14 85 6.4 14.5 0.00 0.23 0.00 94 1007.4
20260503222005 14 90 6.4 19.3 0.00 0.23 0.00 93 1007.4
20260503221505 14 97 6.4 19.3 0.00 0.23 0.00 93 1007.4
20260503221004 14 92 4.8 17.7 0.10 0.23 0.00 93 1007.4
20260503220505 14 79 3.2 14.5 0.10 0.23 0.00 92 1007.4
20260503220009 14 79 3.2 12.9 0.10 0.23 0.00 92 1007.4
20260503215505 14 73 3.2 12.9 0.10 0.23 0.23 92 1007.4
20260503215005 14 71 3.2 12.9 0.10 0.23 0.23 92 1007.4
20260503214505 14 79 3.2 12.9 0.10 0.23 0.23 92 1007.4
20260503214004 14 82 1.6 11.3 0.10 0.23 0.23 92 1007.4
20260503213505 14 86 1.6 8.0 0.10 0.23 0.23 92 1007.4
20260503213005 14 78 1.6 8.0 0.10 0.23 0.23 91 1007.4
20260503212504 14 53 3.2 11.3 0.10 0.23 0.23 91 1006.4
20260503212005 14 47 4.8 12.9 0.10 0.23 0.23 91 1006.4
20260503211504 14 43 8.0 12.9 0.10 0.23 0.23 91 1006.4
20260503211004 14 34 9.7 16.1 0.13 0.13 0.13 91 1007.4
20260503210505 14 36 11.3 16.1 0.13 0.13 0.13 91 1007.4
20260503210005 14 40 8.0 16.1 0.13 0.13 0.13 91 1007.4
20260503205504 14 40 8.0 16.1 0.13 0.13 0.13 90 1007.4
20260503205005 15 42 11.3 16.1 0.13 0.13 0.13 90 1007.4
20260503204504 15 41 9.7 16.1 0.13 0.13 0.13 89 1007.4
20260503204004 15 36 4.8 12.9 0.13 0.13 0.13 89 1007.4
20260503203504 15 30 4.8 9.7 0.13 0.13 0.13 88 1007.4
20260503203005 15 35 4.8 9.7 0.13 0.13 0.13 88 1007.4
20260503202504 15 42 3.2 9.7 0.13 0.13 0.13 87 1007.4
20260503202004 15 26 3.2 9.7 0.13 0.13 0.13 87 1007.4
20260503201505 15 23 1.6 9.7 0.13 0.13 0.13 87 1007.4
20260503201004 15 22 0.0 4.8 0.00 0.00 0.00 86 1008.4
20260503200504 15 0 0.0 0.0 0.00 0.00 0.00 85 1008.4
20260503200005 15 0 0.0 0.0 0.00 0.00 0.00 85 1008.4
20260503195505 15 0 0.0 0.0 0.00 0.00 0.00 85 1007.4
20260503195005 15 0 0.0 0.0 0.00 0.00 0.00 85 1007.4
20260503194505 15 89 1.6 11.3 0.00 0.00 0.00 85 1007.4
20260503194004 17 80 1.6 11.3 0.00 0.00 0.00 68 1006.4
20260503193504 17 70 3.2 14.5 0.00 0.00 0.00 68 1006.4
20260503193005 17 67 4.8 14.5 0.00 0.00 0.00 68 1006.4
20260503192504 17 62 8.0 17.7 0.00 0.00 0.00 68 1006.4
20260503192004 17 78 11.3 17.7 0.00 0.00 0.00 68 1006.4
20260503191505 17 99 8.0 19.3 0.00 0.00 0.00 68 1006.4
20260503191004 17 109 11.3 30.6 0.00 0.00 0.00 68 1006.4
20260503190504 17 95 14.5 30.6 0.00 0.00 0.00 68 1006.4
20260503190005 17 91 12.9 30.6 0.00 0.00 0.00 68 1006.4
20260503185504 17 101 12.9 20.9 0.00 0.00 0.00 68 1006.4
20260503185005 17 102 14.5 20.9 0.00 0.00 0.00 68 1006.4
20260503184504 17 130 14.5 22.5 0.00 0.00 0.00 68 1006.4
20260503184005 17 123 14.5 25.7 0.00 0.00 0.00 68 1006.4
20260503183504 17 110 14.5 25.7 0.00 0.00 0.00 68 1006.4
20260503183005 17 118 16.1 38.6 0.00 0.00 0.00 68 1006.4
20260503182505 17 119 17.7 38.6 0.00 0.00 0.00 68 1006.4
20260503182006 17 109 16.1 24.1 0.00 0.00 0.00 68 1006.4
20260503181505 17 122 16.1 24.1 0.00 0.00 0.00 68 1006.4
20260503181005 17 118 14.5 24.1 0.00 0.00 0.00 68 1006.4
20260503180505 17 99 12.9 25.7 0.00 0.00 0.00 68 1006.4
20260503180005 17 97 12.9 25.7 0.00 0.00 0.00 68 1006.4
20260503175505 17 106 14.5 25.7 0.00 0.00 0.00 68 1006.4
20260503175004 17 139 17.7 25.7 0.00 0.00 0.00 68 1006.4
20260503174504 17 136 20.9 25.7 0.00 0.00 0.00 68 1006.4
20260503174005 17 142 19.3 25.7 0.00 0.00 0.00 68 1006.4
20260503173505 17 135 19.3 30.6 0.00 0.00 0.00 68 1006.4
20260503173005 17 122 19.3 35.4 0.00 0.00 0.00 68 1006.4
20260503172505 17 115 20.9 35.4 0.00 0.00 0.00 68 1006.4
20260503172004 17 90 19.3 32.2 0.00 0.00 0.00 68 1006.4
20260503171505 17 83 19.3 32.2 0.00 0.00 0.00 68 1006.4
20260503171005 17 87 19.3 30.6 0.00 0.00 0.00 68 1006.4
20260503170505 18 102 19.3 30.6 0.00 0.00 0.00 68 1006.4
20260503151005 21 87 20.9 35.4 0.00 0.00 0.00 59 1006.4
20260503150505 21 71 20.9 37.0 0.00 0.00 0.00 59 1006.4
20260503131005 23 114 19.3 32.2 0.00 0.00 0.00 50 1008.4
20260503130504 23 117 17.7 32.2 0.00 0.00 0.00 51 1008.4
20260503110505 22 83 9.7 29.0 0.00 0.00 0.00 56 1009.4
20260503090504 20 97 11.3 20.9 0.00 0.00 0.00 66 1009.4
20260503081505 18 116 14.5 29.0 0.00 0.00 0.00 76 1009.4
20260503081005 18 106 12.9 29.0 0.00 0.00 0.00 76 1009.4
20260503080504 18 107 11.3 24.1 0.00 0.00 0.00 76 1009.4
20260503072505 17 98 11.3 20.9 0.00 0.00 0.00 78 1009.4
20260503072005 17 106 12.9 22.5 0.00 0.00 0.00 78 1009.4
20260503071505 17 115 14.5 30.6 0.00 0.00 0.00 78 1009.4
20260503071005 17 120 14.5 30.6 0.00 0.00 0.00 79 1009.4
20260503070505 13 116 9.7 25.7 0.00 0.00 0.00 90 1009.4
20260503055003 13 149 1.6 9.7 0.00 0.00 0.00 90 1008.4
20260503054503 13 124 1.6 9.7 0.00 0.00 0.00 90 1008.4
20260503053503 13 95 1.6 9.7 0.00 0.00 0.00 90 1008.4
20260503053003 14 89 1.6 8.0 0.00 0.00 0.00 85 1008.4
20260503052503 14 95 1.6 8.0 0.00 0.00 0.00 85 1008.4
20260503052003 14 122 0.0 4.8 0.00 0.00 0.00 85 1008.4
20260503051503 14 135 0.0 4.8 0.00 0.00 0.00 85 1008.4
20260503051003 14 135 0.0 3.2 0.00 0.00 0.00 85 1008.4
20260503050504 14 135 0.0 3.2 0.00 0.00 0.00 85 1008.4
20260503050003 14 0 0.0 0.0 0.00 0.00 0.00 85 1008.4
20260503045503 14 0 0.0 0.0 0.00 0.00 0.00 85 1008.4
20260503045003 14 158 0.0 3.2 0.00 0.00 0.00 85 1008.4
20260503044503 14 158 0.0 3.2 0.00 0.00 0.00 85 1008.4
20260503044003 14 158 0.0 6.4 0.00 0.00 0.00 85 1008.4
20260503043503 14 158 0.0 6.4 0.00 0.00 0.00 85 1008.4
20260503043003 14 0 0.0 0.0 0.00 0.00 0.00 85 1008.4
20260503042503 14 0 0.0 0.0 0.00 0.00 0.00 85 1008.4
20260503042003 14 0 0.0 0.0 0.00 0.00 0.00 85 1008.4
20260503041503 14 0 0.0 0.0 0.00 0.00 0.00 85 1008.4
20260503041003 14 149 0.0 3.2 0.00 0.00 0.00 85 1008.4
20260503040503 14 144 0.0 8.0 0.00 0.00 0.00 85 1008.4
20260503040003 14 142 0.0 8.0 0.00 0.00 0.00 85 1008.4
20260503035503 14 0 0.0 0.0 0.00 0.00 0.00 85 1008.4
20260503035003 14 128 1.6 9.7 0.00 0.00 0.00 85 1008.4